| time (UTC) | temp F | wind direction | speed knots | gust knots | rain 1hr in | rain 24hr in | rain mn in | humidity % | barometer mb |
| 20260906175719 | 73 | 100 | 3.5 | 7.8 | 0.00 | 0.00 | 0.00 | 83 | 1020.7 |
| 20260906174721 | 73 | 141 | 2.6 | 7.8 | 0.00 | 0.00 | 0.00 | 83 | 1021.0 |
| 20260906173721 | 73 | 138 | 3.5 | 7.0 | 0.00 | 0.00 | 0.00 | 83 | 1021.2 |
| 20260906172745 | 73 | 115 | 0.9 | 7.8 | 0.00 | 0.00 | 0.00 | 83 | 1021.3 |
| 20260906171753 | 73 | 103 | 1.7 | 7.0 | 0.00 | 0.00 | 0.00 | 84 | 1021.5 |
| 20260906170720 | 73 | 136 | 2.6 | 7.8 | 0.00 | 0.00 | 0.00 | 84 | 1021.5 |
| 20260906165721 | 72 | 114 | 2.6 | 7.0 | 0.00 | 0.00 | 0.00 | 84 | 1021.5 |
| 20260906164731 | 72 | 149 | 3.5 | 8.7 | 0.00 | 0.00 | 0.00 | 84 | 1021.4 |
| 20260906163739 | 72 | 98 | 1.7 | 7.8 | 0.00 | 0.00 | 0.00 | 85 | 1021.5 |
| 20260906162722 | 72 | 90 | 5.2 | 10.4 | 0.00 | 0.00 | 0.00 | 84 | 1021.3 |
| 20260906161723 | 72 | 95 | 3.5 | 7.0 | 0.00 | 0.00 | 0.00 | 84 | 1021.4 |
| 20260906160751 | 73 | 149 | 1.7 | 7.0 | 0.00 | 0.00 | 0.00 | 83 | 1021.4 |
| 20260906155720 | 73 | 157 | 1.7 | 8.7 | 0.00 | 0.00 | 0.00 | 84 | 1021.3 |
| 20260906154721 | 72 | 164 | 2.6 | 9.6 | 0.00 | 0.00 | 0.00 | 85 | 1021.3 |
| 20260906153744 | 71 | 149 | 3.5 | 7.0 | 0.00 | 0.00 | 0.00 | 85 | 1021.3 |
| 20260906152718 | 71 | 154 | 3.5 | 8.7 | 0.00 | 0.00 | 0.00 | 86 | 1021.3 |
| 20260906151721 | 71 | 124 | 2.6 | 6.1 | 0.00 | 0.00 | 0.00 | 88 | 1021.3 |
| 20260906150731 | 71 | 97 | 4.3 | 7.8 | 0.00 | 0.00 | 0.00 | 88 | 1021.2 |
| 20260906145719 | 70 | 135 | 4.3 | 8.7 | 0.00 | 0.00 | 0.00 | 88 | 1021.4 |
| 20260906144725 | 70 | 111 | 2.6 | 7.8 | 0.00 | 0.00 | 0.00 | 90 | 1021.4 |
| 20260906143732 | 69 | 103 | 3.5 | 8.7 | 0.00 | 0.00 | 0.00 | 91 | 1021.2 |
| 20260906142738 | 69 | 130 | 3.5 | 8.7 | 0.00 | 0.00 | 0.00 | 91 | 1021.1 |
| 20260906141729 | 69 | 151 | 3.5 | 9.6 | 0.00 | 0.00 | 0.00 | 92 | 1021.2 |
| 20260906140730 | 69 | 98 | 0.9 | 9.6 | 0.00 | 0.00 | 0.00 | 93 | 1021.1 |
| 20260906135739 | 68 | 82 | 4.3 | 9.6 | 0.00 | 0.00 | 0.00 | 92 | 1021.3 |
| 20260906134743 | 68 | 82 | 3.5 | 7.0 | 0.00 | 0.00 | 0.00 | 93 | 1021.4 |
| 20260906133732 | 68 | 102 | 2.6 | 7.0 | 0.00 | 0.00 | 0.00 | 93 | 1021.2 |
| 20260906132719 | 68 | 89 | 3.5 | 8.7 | 0.00 | 0.00 | 0.00 | 94 | 1021.2 |
| 20260906131744 | 68 | 104 | 1.7 | 9.6 | 0.00 | 0.00 | 0.00 | 94 | 1021.0 |
| 20260906130718 | 68 | 134 | 2.6 | 7.0 | 0.00 | 0.00 | 0.00 | 94 | 1020.9 |
| 20260906125750 | 68 | 96 | 2.6 | 7.8 | 0.00 | 0.00 | 0.00 | 94 | 1020.7 |
| 20260906124716 | 68 | 113 | 2.6 | 7.0 | 0.00 | 0.00 | 0.00 | 94 | 1020.6 |
| 20260906123733 | 68 | 110 | 2.6 | 7.0 | 0.00 | 0.00 | 0.00 | 94 | 1020.6 |
| 20260906122718 | 68 | 101 | 2.6 | 12.2 | 0.00 | 0.00 | 0.00 | 95 | 1020.6 |
| 20260906121719 | 68 | 96 | 1.7 | 9.6 | 0.00 | 0.00 | 0.00 | 95 | 1020.5 |
| 20260906120744 | 68 | 112 | 3.5 | 8.7 | 0.00 | 0.00 | 0.00 | 95 | 1020.2 |
| 20260906115728 | 68 | 99 | 2.6 | 5.2 | 0.00 | 0.01 | 0.00 | 95 | 1020.3 |
| 20260906114716 | 68 | 78 | 3.5 | 8.7 | 0.00 | 0.01 | 0.00 | 95 | 1020.2 |
| 20260906113726 | 68 | 144 | 3.5 | 7.0 | 0.00 | 0.01 | 0.00 | 96 | 1020.1 |
| 20260906112730 | 68 | 128 | 2.6 | 7.0 | 0.00 | 0.01 | 0.00 | 96 | 1020.0 |
| 20260906111717 | 67 | 116 | 1.7 | 7.0 | 0.00 | 0.01 | 0.00 | 96 | 1020.0 |
| 20260906110724 | 67 | 114 | 2.6 | 7.0 | 0.00 | 0.01 | 0.00 | 96 | 1020.1 |
| 20260906105720 | 67 | 92 | 2.6 | 5.2 | 0.00 | 0.01 | 0.00 | 96 | 1020.2 |
| 20260906104717 | 66 | 88 | 0.0 | 0.0 | 0.00 | 0.01 | 0.00 | 96 | 1020.1 |
| 20260906103723 | 65 | 88 | 0.0 | 0.0 | 0.00 | 0.01 | 0.00 | 95 | 1020.0 |
| 20260906102729 | 66 | 88 | 0.0 | 0.0 | 0.00 | 0.01 | 0.00 | 95 | 1019.7 |
| 20260906101716 | 66 | 88 | 0.0 | 0.0 | 0.00 | 0.01 | 0.00 | 95 | 1019.7 |
| 20260906100732 | 66 | 88 | 0.0 | 0.0 | 0.00 | 0.01 | 0.00 | 94 | 1019.6 |
| 20260906095729 | 66 | 88 | 0.0 | 0.0 | 0.00 | 0.01 | 0.00 | 94 | 1019.6 |
| 20260906094732 | 66 | 88 | 0.0 | 0.0 | 0.00 | 0.01 | 0.00 | 94 | 1019.3 |
| 20260906093717 | 67 | 88 | 0.0 | 0.0 | 0.00 | 0.01 | 0.00 | 94 | 1019.3 |
| 20260906092751 | 67 | 88 | 0.0 | 0.0 | 0.00 | 0.01 | 0.00 | 94 | 1018.9 |
| 20260906091731 | 67 | 88 | 0.0 | 3.5 | 0.00 | 0.01 | 0.00 | 94 | 1019.0 |
| 20260906090720 | 67 | 88 | 0.9 | 5.2 | 0.00 | 0.01 | 0.00 | 94 | 1018.9 |
| 20260906085727 | 68 | 88 | 1.7 | 3.5 | 0.00 | 0.01 | 0.00 | 94 | 1018.7 |
| 20260906084720 | 68 | 88 | 1.7 | 5.2 | 0.00 | 0.01 | 0.00 | 94 | 1018.6 |
| 20260906083719 | 68 | 88 | 2.6 | 6.1 | 0.00 | 0.01 | 0.00 | 94 | 1018.5 |
| 20260906082723 | 68 | 88 | 2.6 | 7.0 | 0.00 | 0.01 | 0.00 | 94 | 1018.6 |
| 20260906081730 | 68 | 88 | 2.6 | 6.1 | 0.00 | 0.01 | 0.00 | 94 | 1018.7 |
| 20260906080730 | 68 | 88 | 1.7 | 6.1 | 0.00 | 0.01 | 0.00 | 94 | 1018.9 |
| 20260906075731 | 68 | 88 | 1.7 | 6.1 | 0.00 | 0.01 | 0.00 | 94 | 1019.0 |
| 20260906074716 | 68 | 86 | 2.6 | 6.1 | 0.00 | 0.01 | 0.00 | 94 | 1019.0 |
| 20260906073731 | 69 | 84 | 2.6 | 6.1 | 0.00 | 0.01 | 0.00 | 94 | 1019.1 |
| 20260906072752 | 69 | 84 | 2.6 | 6.1 | 0.00 | 0.01 | 0.00 | 94 | 1019.1 |
| 20260906071721 | 69 | 84 | 2.6 | 5.2 | 0.00 | 0.01 | 0.00 | 94 | 1019.2 |
| 20260906070743 | 68 | 84 | 1.7 | 5.2 | 0.00 | 0.01 | 0.00 | 94 | 1019.1 |
| 20260906065728 | 69 | 84 | 1.7 | 5.2 | 0.00 | 0.01 | 0.00 | 94 | 1019.2 |
| 20260906064717 | 68 | 84 | 1.7 | 4.3 | 0.00 | 0.01 | 0.00 | 94 | 1019.3 |
| 20260906063731 | 68 | 84 | 0.9 | 1.7 | 0.00 | 0.01 | 0.00 | 94 | 1019.4 |
| 20260906062716 | 68 | 84 | 0.9 | 3.5 | 0.00 | 0.01 | 0.00 | 94 | 1019.5 |
| 20260906061725 | 68 | 84 | 0.0 | 0.0 | 0.00 | 0.01 | 0.00 | 94 | 1019.6 |
| 20260906060732 | 68 | 84 | 0.0 | 0.0 | 0.00 | 0.01 | 0.00 | 94 | 1019.5 |
| 20260906055738 | 69 | 84 | 0.0 | 0.9 | 0.00 | 0.01 | 0.00 | 94 | 1019.6 |
| 20260906054722 | 69 | 84 | 0.9 | 2.6 | 0.00 | 0.01 | 0.00 | 94 | 1019.6 |
| 20260906053724 | 69 | 84 | 0.0 | 2.6 | 0.00 | 0.01 | 0.00 | 93 | 1019.6 |
| 20260906052731 | 69 | 84 | 0.9 | 3.5 | 0.00 | 0.01 | 0.00 | 94 | 1019.7 |
| 20260906051717 | 70 | 84 | 0.9 | 3.5 | 0.00 | 0.01 | 0.00 | 94 | 1019.6 |
| 20260906050724 | 70 | 84 | 0.9 | 2.6 | 0.00 | 0.01 | 0.00 | 94 | 1019.6 |
| 20260906045728 | 69 | 84 | 0.0 | 2.6 | 0.00 | 0.01 | 0.01 | 94 | 1019.6 |
| 20260906044716 | 69 | 84 | 1.7 | 3.5 | 0.00 | 0.01 | 0.01 | 94 | 1019.4 |
| 20260906043725 | 69 | 84 | 1.7 | 3.5 | 0.00 | 0.01 | 0.01 | 94 | 1019.5 |
| 20260906042750 | 69 | 84 | 0.0 | 3.5 | 0.00 | 0.01 | 0.01 | 94 | 1019.6 |
| 20260906041732 | 70 | 84 | 0.9 | 2.6 | 0.00 | 0.01 | 0.01 | 93 | 1019.5 |
| 20260906040751 | 70 | 84 | 0.9 | 1.7 | 0.00 | 0.01 | 0.01 | 93 | 1019.6 |
| 20260906035718 | 70 | 84 | 0.9 | 2.6 | 0.00 | 0.01 | 0.01 | 93 | 1019.4 |
| 20260906034746 | 70 | 84 | 0.0 | 2.6 | 0.00 | 0.01 | 0.01 | 93 | 1019.5 |
| 20260906033728 | 70 | 84 | 0.9 | 5.2 | 0.00 | 0.01 | 0.01 | 93 | 1019.7 |
| 20260906032753 | 71 | 84 | 0.9 | 3.5 | 0.00 | 0.01 | 0.01 | 93 | 1019.6 |
| 20260906031731 | 71 | 85 | 0.0 | 1.7 | 0.00 | 0.01 | 0.01 | 92 | 1019.5 |
| 20260906030741 | 71 | 84 | 0.0 | 1.7 | 0.00 | 0.01 | 0.01 | 92 | 1019.5 |
| 20260906025731 | 71 | 84 | 0.9 | 2.6 | 0.00 | 0.01 | 0.01 | 92 | 1019.4 |
| 20260906024730 | 71 | 84 | 0.9 | 3.5 | 0.00 | 0.01 | 0.01 | 92 | 1019.3 |
| 20260906023720 | 71 | 84 | 1.7 | 5.2 | 0.00 | 0.01 | 0.01 | 92 | 1019.0 |
| 20260906022728 | 71 | 84 | 0.0 | 0.0 | 0.00 | 0.01 | 0.01 | 92 | 1018.9 |
| 20260906021731 | 71 | 84 | 0.0 | 0.0 | 0.00 | 0.01 | 0.01 | 92 | 1018.9 |
| 20260906020732 | 71 | 84 | 0.0 | 2.6 | 0.00 | 0.01 | 0.01 | 92 | 1018.7 |
| 20260906015716 | 71 | 84 | 0.9 | 1.7 | 0.00 | 0.01 | 0.01 | 92 | 1018.6 |
| 20260906014750 | 72 | 84 | 0.0 | 1.7 | 0.00 | 0.01 | 0.01 | 91 | 1018.5 |
| 20260906013720 | 72 | 84 | 0.0 | 0.0 | 0.00 | 0.01 | 0.01 | 91 | 1018.3 |
| 20260906012751 | 72 | 84 | 0.0 | 0.0 | 0.00 | 0.01 | 0.01 | 90 | 1018.3 |
| 20260906011730 | 73 | 84 | 0.0 | 0.0 | 0.00 | 0.01 | 0.01 | 90 | 1018.1 |
| 20260906010730 | 73 | 84 | 0.0 | 1.7 | 0.00 | 0.01 | 0.01 | 90 | 1017.9 |
| 20260906005722 | 73 | 84 | 0.0 | 1.7 | 0.00 | 0.01 | 0.01 | 89 | 1017.9 |
| 20260906004752 | 73 | 84 | 0.0 | 1.7 | 0.00 | 0.01 | 0.01 | 89 | 1017.7 |
| 20260906003729 | 73 | 84 | 0.9 | 2.6 | 0.00 | 0.01 | 0.01 | 89 | 1017.7 |
| 20260906002719 | 74 | 84 | 0.0 | 0.0 | 0.00 | 0.01 | 0.01 | 88 | 1017.6 |
| 20260906001727 | 74 | 84 | 0.0 | 0.0 | 0.00 | 0.01 | 0.01 | 88 | 1017.5 |
| 20260906000721 | 74 | 84 | 0.9 | 1.7 | 0.00 | 0.01 | 0.01 | 87 | 1017.5 |
| 20260905235749 | 75 | 84 | 0.0 | 3.5 | 0.00 | 0.01 | 0.01 | 87 | 1017.6 |
| 20260905234716 | 75 | 85 | 0.9 | 6.1 | 0.00 | 0.01 | 0.01 | 86 | 1017.5 |
| 20260905233720 | 75 | 87 | 0.9 | 5.2 | 0.00 | 0.01 | 0.01 | 86 | 1017.5 |
| 20260905232730 | 75 | 88 | 0.9 | 5.2 | 0.00 | 0.01 | 0.01 | 86 | 1017.5 |
| 20260905231730 | 76 | 94 | 1.7 | 7.8 | 0.00 | 0.01 | 0.01 | 85 | 1017.4 |
| 20260905230719 | 76 | 71 | 0.9 | 5.2 | 0.00 | 0.01 | 0.01 | 85 | 1017.4 |
| 20260905225724 | 76 | 44 | 1.7 | 7.8 | 0.00 | 0.01 | 0.01 | 85 | 1017.3 |
| 20260905224716 | 76 | 82 | 2.6 | 7.0 | 0.00 | 0.01 | 0.01 | 85 | 1017.3 |
| 20260905223733 | 76 | 82 | 1.7 | 7.0 | 0.00 | 0.01 | 0.01 | 84 | 1017.3 |
| 20260905222717 | 76 | 106 | 3.5 | 9.6 | 0.00 | 0.01 | 0.01 | 84 | 1017.3 |
| 20260905221741 | 76 | 60 | 1.7 | 3.5 | 0.00 | 0.01 | 0.01 | 85 | 1017.2 |
| 20260905220727 | 76 | 57 | 3.5 | 8.7 | 0.00 | 0.01 | 0.01 | 84 | 1017.2 |
| 20260905215721 | 76 | 93 | 3.5 | 8.7 | 0.00 | 0.01 | 0.01 | 84 | 1017.0 |
| 20260905214728 | 76 | 64 | 4.3 | 10.4 | 0.00 | 0.01 | 0.01 | 84 | 1016.8 |
| 20260905213735 | 76 | 96 | 7.0 | 12.2 | 0.00 | 0.01 | 0.01 | 83 | 1016.6 |
| 20260905212717 | 76 | 53 | 5.2 | 11.3 | 0.00 | 0.01 | 0.01 | 83 | 1016.7 |
| 20260905211727 | 76 | 61 | 5.2 | 10.4 | 0.00 | 0.01 | 0.01 | 85 | 1016.7 |
| 20260905210720 | 76 | 81 | 6.1 | 13.0 | 0.00 | 0.01 | 0.01 | 85 | 1016.6 |
| 20260905205729 | 75 | 44 | 4.3 | 12.2 | 0.00 | 0.01 | 0.01 | 85 | 1016.8 |
| 20260905204716 | 75 | 66 | 6.1 | 11.3 | 0.00 | 0.01 | 0.01 | 84 | 1016.9 |
| 20260905203719 | 76 | 61 | 6.1 | 11.3 | 0.00 | 0.01 | 0.01 | 85 | 1017.0 |
| 20260905202731 | 76 | 53 | 4.3 | 11.3 | 0.00 | 0.01 | 0.01 | 85 | 1017.1 |
| 20260905201730 | 76 | 64 | 4.3 | 10.4 | 0.00 | 0.01 | 0.01 | 85 | 1017.3 |
| 20260905200720 | 76 | 48 | 5.2 | 13.0 | 0.00 | 0.01 | 0.01 | 85 | 1017.5 |
| 20260905195743 | 76 | 36 | 5.2 | 10.4 | 0.00 | 0.01 | 0.01 | 86 | 1017.6 |
| 20260905194744 | 75 | 58 | 4.3 | 8.7 | 0.00 | 0.01 | 0.01 | 86 | 1017.9 |
| 20260905193737 | 75 | 57 | 5.2 | 9.6 | 0.00 | 0.01 | 0.01 | 86 | 1017.9 |
| 20260905192720 | 75 | 59 | 2.6 | 10.4 | 0.00 | 0.01 | 0.01 | 87 | 1018.3 |
| 20260905191737 | 75 | 65 | 2.6 | 10.4 | 0.00 | 0.01 | 0.01 | 87 | 1018.3 |
| 20260905190724 | 74 | 59 | 4.3 | 6.1 | 0.00 | 0.01 | 0.01 | 88 | 1018.7 |
| 20260905185717 | 74 | 60 | 1.7 | 6.1 | 0.00 | 0.01 | 0.01 | 88 | 1018.9 |
| 20260905184754 | 74 | 57 | 2.6 | 8.7 | 0.00 | 0.01 | 0.01 | 88 | 1018.9 |
| 20260905183733 | 74 | 47 | 2.6 | 4.3 | 0.00 | 0.01 | 0.01 | 88 | 1019.1 |
| 20260905182749 | 74 | 47 | 1.7 | 3.5 | 0.00 | 0.01 | 0.01 | 89 | 1019.3 |
| 20260905181716 | 73 | 47 | 0.0 | 3.5 | 0.00 | 0.01 | 0.01 | 91 | 1019.4 |
| 20260905180724 | 73 | 47 | 0.9 | 7.8 | 0.00 | 0.01 | 0.01 | 91 | 1019.4 |